Weather History for Luverne, MN

Change the Weather History Date:

Saturday, February 11, 2012

  Actual Average (KFSD) Record (KFSD)
Temperature  
Mean Temperature 10 °F 20 °F  
Max Temperature 23 °F 30 °F 61 °F (1977)
Min Temperature -2 °F 10 °F -40 °F (1899)
Degree Days  
Heating Degree Days 54 45  
Month to date heating degree days 507  
Since 1 July heating degree days 5139  
Cooling Degree Days 0 0  
Month to date cooling degree days 0  
Year to date cooling degree days 0  
Moisture  
Dew Point -8 °F    
Average Humidity 49    
Maximum Humidity 71    
Minimum Humidity 26    
Precipitation  
Precipitation 0.00 in 0.02 in 0.25 in (1992)
Month to date precipitation 0.20  
Year to date precipitation 0.76  
Snow  
Snow 0.00 in 0.20 in 4.80 in (1992)
Month to date snowfall 2.6  
Since 1 July snowfall 27.2  
Snow Depth -    
Sea Level Pressure  
Sea Level Pressure 30.62 in    
Wind  
Wind Speed 10 mph (NW)    
Max Wind Speed 17 mph    
Max Gust Speed 25 mph    
Visibility 10 miles    
Events      
T = Trace of Precipitation, MM = Missing Value Source: NWS Daily Summary

Daily Weather History Graph

Daily Weather History Graph

Search for Another Location

Airport:

Trip Planner

Search our weather history database for the weather conditions in past years. The results will help you decide how hot, cold, wet, or windy it might be!

Date:

Astronomy

Feb. 11, 2012 Rise Set
Actual Time 7:29 AM CST 5:49 PM CST
Civil Twilight 6:59 AM CST 6:18 PM CST
Nautical Twilight 6:26 AM CST 6:52 PM CST
Astronomical Twilight 5:52 AM CST 7:26 PM CST
Moon 10:50 PM CST (2/11) 9:02 AM CST (2/11)
Length of Visible Light 11h 19m
Length of Day
10h 19m
Waning Gibbous, 82% of the Moon is Illuminated
Feb 11
Waning Gibbous
Feb 14
Last Quarter
Feb 21
New
Feb 29
First Quarter
Mar 8
Full

Hourly Weather History & Observations

Time (CST) Temp. Windchill Dew Point Humidity Pressure Visibility Wind Dir Wind Speed Gust Speed Precip Events Conditions
12:17 AM 1.4 °F -14.5 °F -9.4 °F 61% 30.60 in 10.0 mi North 10.4 mph - N/A   Clear
12:36 AM 1.4 °F -11.3 °F -9.4 °F 61% 30.60 in 10.0 mi NNW 6.9 mph - N/A   Clear
12:56 AM 1.4 °F -13.5 °F -9.4 °F 61% 30.60 in 10.0 mi North 9.2 mph - N/A   Clear
1:17 AM 1.4 °F -14.5 °F -9.4 °F 61% 30.60 in 10.0 mi North 10.4 mph - N/A   Clear
1:36 AM 1.4 °F -16.1 °F -9.4 °F 61% 30.61 in 10.0 mi North 12.7 mph 17.3 mph N/A   Clear
1:56 AM 1.4 °F -16.1 °F -9.4 °F 61% 30.61 in 10.0 mi North 12.7 mph 18.4 mph N/A   Clear
2:17 AM 1.4 °F -15.3 °F -9.4 °F 61% 30.61 in 10.0 mi NNE 11.5 mph - N/A   Clear
2:36 AM 1.4 °F -13.5 °F -9.4 °F 61% 30.61 in 10.0 mi North 9.2 mph - N/A   Clear
2:56 AM 1.4 °F -11.3 °F -9.4 °F 61% 30.62 in 10.0 mi NNW 6.9 mph - N/A   Clear
3:17 AM -0.4 °F -10.4 °F -9.4 °F 66% 30.62 in 10.0 mi NNW 4.6 mph - N/A   Clear
3:36 AM -0.4 °F -12.0 °F -9.4 °F 66% 30.62 in 10.0 mi NNW 5.8 mph - N/A   Clear
3:56 AM -0.4 °F -12.0 °F -9.4 °F 66% 30.63 in 10.0 mi NNW 5.8 mph - N/A   Clear
4:17 AM -0.4 °F -13.4 °F -9.4 °F 66% 30.63 in 10.0 mi NNW 6.9 mph - N/A   Clear
4:36 AM -0.4 °F -13.4 °F -11.2 °F 60% 30.63 in 10.0 mi NNW 6.9 mph - N/A   Clear
4:56 AM -2.2 °F -18.9 °F -11.2 °F 66% 30.64 in 10.0 mi NW 10.4 mph - N/A   Clear
5:16 AM -2.2 °F -16.8 °F -11.2 °F 66% 30.65 in 10.0 mi NNW 8.1 mph - N/A   Clear
5:36 AM -2.2 °F -18.0 °F -11.2 °F 66% 30.66 in 10.0 mi NW 9.2 mph - N/A   Clear
5:57 AM -2.2 °F -16.8 °F -11.2 °F 66% 30.65 in 10.0 mi NNW 8.1 mph - N/A   Clear
6:16 AM -2.2 °F -18.0 °F -11.2 °F 66% 30.65 in 10.0 mi NW 9.2 mph - N/A   Clear
6:37 AM -2.2 °F -18.9 °F -9.4 °F 71% 30.66 in 10.0 mi NW 10.4 mph - N/A   Clear
6:57 AM -2.2 °F -16.8 °F -9.4 °F 71% 30.67 in 10.0 mi NNW 8.1 mph - N/A   Clear
7:16 AM -2.2 °F -16.8 °F -9.4 °F 71% 30.67 in 10.0 mi NNW 8.1 mph - N/A   Clear
7:36 AM -2.2 °F -14.2 °F -9.4 °F 71% 30.67 in 10.0 mi NNW 5.8 mph - N/A   Clear
7:57 AM -0.4 °F -12.0 °F -9.4 °F 66% 30.67 in 10.0 mi NNW 5.8 mph - N/A   Clear
8:16 AM 1.4 °F -11.3 °F -9.4 °F 61% 30.67 in 10.0 mi NNW 6.9 mph - N/A   Clear
8:37 AM 1.4 °F -14.5 °F -9.4 °F 61% 30.68 in 10.0 mi NNW 10.4 mph - N/A   Clear
8:56 AM 3.2 °F -13.1 °F -9.4 °F 56% 30.68 in 10.0 mi NNW 11.5 mph - N/A   Clear
9:16 AM 3.2 °F -13.1 °F -9.4 °F 56% 30.69 in 10.0 mi NNW 11.5 mph - N/A   Clear
9:37 AM 5.0 °F -10.8 °F -7.6 °F 56% 30.69 in 10.0 mi NNW 11.5 mph - N/A   Clear
9:56 AM 8.6 °F -6.3 °F -9.4 °F 44% 30.68 in 10.0 mi NW 11.5 mph - N/A   Clear
10:16 AM 10.4 °F -5.4 °F -9.4 °F 41% 30.68 in 10.0 mi NNW 13.8 mph 18.4 mph N/A   Clear
10:37 AM 12.2 °F -3.7 °F -9.4 °F 38% 30.68 in 10.0 mi NW 15.0 mph - N/A   Clear
10:56 AM 12.2 °F -3.1 °F -9.4 °F 38% 30.68 in 10.0 mi NNW 13.8 mph - N/A   Clear
11:16 AM 12.2 °F -3.1 °F -7.6 °F 41% 30.68 in 10.0 mi NW 13.8 mph - N/A   Clear
11:37 AM 14.0 °F 0.5 °F -7.6 °F 38% 30.68 in 10.0 mi NNW 11.5 mph 18.4 mph N/A   Clear
11:56 AM 14.0 °F 0.5 °F -7.6 °F 38% 30.67 in 10.0 mi NW 11.5 mph 20.7 mph N/A   Clear
12:17 PM 17.6 °F 5.0 °F -7.6 °F 32% 30.66 in 10.0 mi NW 11.5 mph 19.6 mph N/A   Clear
12:37 PM 17.6 °F 4.3 °F -7.6 °F 32% 30.65 in 10.0 mi NW 12.7 mph 21.9 mph N/A   Clear
12:56 PM 19.4 °F 8.6 °F -7.6 °F 30% 30.64 in 10.0 mi NW 9.2 mph 17.3 mph N/A   Clear
1:17 PM 21.2 °F 8.3 °F -7.6 °F 28% 30.63 in 10.0 mi NW 13.8 mph 19.6 mph N/A   Clear
1:36 PM 21.2 °F 7.3 °F -7.6 °F 28% 30.62 in 10.0 mi WNW 16.1 mph 19.6 mph N/A   Clear
1:56 PM 21.2 °F 8.3 °F -7.6 °F 28% 30.60 in 10.0 mi WNW 13.8 mph 20.7 mph N/A   Clear
2:17 PM 23.0 °F 10.6 °F -7.6 °F 26% 30.60 in 10.0 mi WNW 13.8 mph 20.7 mph N/A   Clear
2:36 PM 23.0 °F 9.6 °F -7.6 °F 26% 30.60 in 10.0 mi West 16.1 mph 24.2 mph N/A   Clear
2:57 PM 23.0 °F 9.6 °F -7.6 °F 26% 30.60 in 10.0 mi WNW 16.1 mph 21.9 mph N/A   Clear
3:16 PM 23.0 °F 9.6 °F -7.6 °F 26% 30.60 in 10.0 mi West 16.1 mph 21.9 mph N/A   Clear
3:37 PM 23.0 °F 9.2 °F -5.8 °F 28% 30.60 in 10.0 mi WNW 17.3 mph 21.9 mph N/A   Clear
3:57 PM 23.0 °F 10.1 °F -5.8 °F 28% 30.60 in 10.0 mi WNW 15.0 mph 25.3 mph N/A   Clear
4:16 PM 21.2 °F 7.3 °F -7.6 °F 28% 30.60 in 10.0 mi WNW 16.1 mph - N/A   Clear
4:37 PM 21.2 °F 8.3 °F -5.8 °F 30% 30.60 in 10.0 mi West 13.8 mph 21.9 mph N/A   Clear
4:57 PM 21.2 °F 9.5 °F -7.6 °F 28% 30.59 in 10.0 mi WNW 11.5 mph 18.4 mph N/A   Clear
5:16 PM 21.2 °F 8.3 °F -7.6 °F 28% 30.58 in 10.0 mi WNW 13.8 mph - N/A   Clear
5:37 PM 19.4 °F 7.9 °F -5.8 °F 33% 30.58 in 10.0 mi WNW 10.4 mph - N/A   Clear
5:57 PM 17.6 °F 7.3 °F -5.8 °F 35% 30.58 in 10.0 mi West 8.1 mph - N/A   Clear
6:16 PM 14.0 °F 2.9 °F -5.8 °F 41% 30.57 in 10.0 mi WNW 8.1 mph - N/A   Clear
6:37 PM 14.0 °F 5.1 °F -5.8 °F 41% 30.57 in 10.0 mi WNW 5.8 mph - N/A   Clear
6:56 PM 10.4 °F -1.5 °F -5.8 °F 48% 30.57 in 10.0 mi WNW 8.1 mph - N/A   Clear
7:16 PM 10.4 °F 0.8 °F -5.8 °F 48% 30.57 in 10.0 mi WNW 5.8 mph - N/A   Clear
7:37 PM 10.4 °F 0.8 °F -5.8 °F 48% 30.56 in 10.0 mi WNW 5.8 mph - N/A   Clear
7:56 PM 8.6 °F -2.6 °F -5.8 °F 52% 30.56 in 10.0 mi West 6.9 mph - N/A   Clear
8:17 PM 8.6 °F -1.3 °F -5.8 °F 52% 30.56 in 10.0 mi WNW 5.8 mph - N/A   Clear
8:36 PM 6.8 °F -3.5 °F -5.8 °F 56% 30.56 in 10.0 mi West 5.8 mph - N/A   Clear
8:57 PM 8.6 °F 0.1 °F -5.8 °F 52% 30.55 in 10.0 mi West 4.6 mph - N/A   Clear
9:16 PM 5.0 °F -4.1 °F -5.8 °F 61% 30.55 in 10.0 mi West 4.6 mph - N/A   Clear
9:37 PM 6.8 °F -0.1 °F -5.8 °F 56% 30.55 in 10.0 mi WNW 3.5 mph - N/A   Clear
9:57 PM 5.0 °F - -4.0 °F 66% 30.55 in 10.0 mi Calm Calm - N/A   Clear
10:16 PM 3.2 °F - -5.8 °F 66% 30.55 in 10.0 mi Calm Calm - N/A   Clear
10:37 PM 3.2 °F - -7.6 °F 61% 30.54 in 10.0 mi Calm Calm - N/A   Clear
10:57 PM 5.0 °F - -5.8 °F 61% 30.53 in 10.0 mi Calm Calm - N/A   Clear
11:16 PM 3.2 °F - -5.8 °F 66% 30.53 in 10.0 mi Calm Calm - N/A   Clear
11:37 PM 3.2 °F - -5.8 °F 66% 30.52 in 10.0 mi Calm Calm - N/A   Clear
11:57 PM 1.4 °F - -5.8 °F 72% 30.52 in 10.0 mi Calm Calm - N/A   Clear